Powrót do katalogu

STARLINK-32674

AktywnyŁącznośćVLEO
NORAD 62434·PAYLOAD·🇺🇸 United States

Wystrzelony Dec 29, 2024 z Vandenberg Space Force Base

Loading…

Następne Przeloty (najbliższe 24 godziny)

TLE

ŚwieżeSource: CelesTrak SupGP

Epoka: Sep 14, 2026, 20:24 UTC

1 62434C 24251C   26257.85048611 -.00007008  00000+0 -20697-3 0  2578
2 62434  53.1571 173.8169 0001337  92.1059 141.0458 15.34405725    18

Śledź STARLINK-32674 w czasie rzeczywistym z AllMySat

Download on the App Store